SCP
0 0 0 1 3 3 2 2 1 1 1 1 1 1 0 0 0 0 0 0 0 0
0 0 1 3 3 2 2 2 1 1 1 1 1 0 0 0 0 0 0 0 0 0
1 1 2 3 2 1 1 2 1 1 1 1 0 0 0 0 0 0 0 0 0 0
1 2 3 3 1 1 1 1 1 1 1 0 0 0 0 0 0 0 0 0 0 0
2 2 2 2 1 1 1 1 1 1 0 0 0 0 0 0 0 0 0 0 0 0
2 2 1 1 1 1 1 0 0 0 0 0 0 0 0 0 0 0 0 0 0 0
1 1 0 0 0 0 0 0 0 0 0 0 0 0 0 0 0 0 0 0 0 0
1 1 0 0 0 0 0 0 0 0 0 0 0 0 0 0 0 0 0 0 0 0
1 0 0 0 0 0 0 0 0 0 0 0 0 0 0 0 0 0 0 0 0 0
1 0 0 0 0 0 0 0 0 0 0 0 0 0 0 0 0 0 0 0 0 0
0 0 0 0 0 0 0 0 0 0 0 0 0 0 0 0 0 0 0 0 0 0
0 0 0 0 0 0 0 0 0 0 0 0 0 0 0 0 0 0 0 0 0 0
0 0 0 0 0 0 0 0 0 0 0 0 0 0 0 0 0 0 0 0 0 -0
0 0 0 0 0 0 0 0 0 0 0 0 0 0 0 -0 0 0 0 0 0 0
Wind_Speed_500mb
70 61 55 56 51 54 50 60 49 41 34 34 38 40 32 29 30 29 29 30 32 33
69 64 63 62 49 51 55 55 48 37 38 42 46 37 35 32 32 29 28 29 29 29
64 62 66 63 56 57 53 57 45 37 40 49 42 36 31 28 28 27 25 22 22 23
61 52 55 62 62 57 54 58 44 43 46 48 40 34 28 24 23 25 20 20 20 20
41 44 53 61 58 56 57 54 46 47 48 44 36 25 26 24 24 24 18 16 21 20
45 48 53 54 50 55 59 58 53 49 48 41 34 30 30 28 25 23 19 16 18 20
44 48 54 55 57 58 59 53 50 48 45 38 31 32 29 28 30 24 21 17 19 21
51 50 58 58 55 55 53 50 48 45 36 30 31 24 19 25 25 20 18 18 21 22
63 62 59 55 58 52 52 52 47 40 37 31 31 30 21 20 20 21 21 21 23 23
66 58 49 51 50 53 54 47 43 40 38 36 31 35 25 24 24 25 21 21 23 24
54 53 55 55 51 51 47 44 42 44 36 33 30 34 26 26 26 24 21 23 25 23
54 60 52 51 48 51 49 43 40 38 35 32 33 30 27 29 27 26 24 21 21 19
56 52 55 53 50 47 45 43 41 36 27 27 26 27 26 26 24 23 20 18 17 14
53 55 58 56 46 44 44 41 36 30 27 25 24 23 23 20 17 17 18 20 17 13
Wind_Direction_500mb
247 247 247 242 242 239 240 241 244 239 233 228 203 213 210 215 222 234 244 242 249 252
242 247 245 240 239 239 236 238 233 233 221 203 214 210 213 218 224 237 240 244 249 248
243 248 245 235 234 234 230 229 223 224 215 205 205 210 211 215 231 233 230 230 237 238
235 237 240 232 231 237 225 213 209 199 197 202 202 201 213 223 225 220 217 231 236 236
230 232 222 230 233 218 210 205 195 191 195 192 194 208 227 225 228 214 221 242 231 227
223 221 226 217 209 201 198 197 184 187 188 187 193 214 224 219 223 211 223 234 233 227
211 208 199 195 196 201 200 189 180 185 185 189 206 211 217 223 209 212 226 239 239 228
190 183 188 190 190 179 178 177 176 176 184 196 190 195 188 190 200 221 233 241 232 225
181 177 180 183 169 170 169 172 175 179 185 187 189 187 201 208 221 238 253 249 225 223
171 172 170 172 171 171 175 173 177 182 187 187 199 201 205 207 224 243 254 236 224 226
164 167 164 164 168 169 172 175 178 179 186 189 193 205 215 212 224 238 235 229 224 239
169 166 169 168 165 171 174 179 182 180 185 190 198 205 213 223 226 228 226 228 226 250
170 171 165 166 169 174 175 176 182 186 195 199 212 215 215 224 225 223 214 219 226 244
161 166 168 168 173 178 183 187 189 195 194 201 203 208 215 214 215 207 206 206 214 201
Wind_Speed_850mb
70 61 55 56 51 54 50 60 49 41 34 34 38 40 32 29 30 29 29 30 32 33
69 64 63 62 49 51 55 55 48 37 38 42 46 37 35 32 32 29 28 29 29 29
64 62 66 63 56 57 53 57 45 37 40 49 42 36 31 28 28 27 25 22 22 23
61 52 55 62 62 57 54 58 44 43 46 48 40 34 28 24 23 25 20 20 20 20
41 44 53 61 58 56 57 54 46 47 48 44 36 25 26 24 24 24 18 16 21 20
45 48 53 54 50 55 59 58 53 49 48 41 34 30 30 28 25 23 19 16 18 20
44 48 54 55 57 58 59 53 50 48 45 38 31 32 29 28 30 24 21 17 19 21
51 50 58 58 55 55 53 50 48 45 36 30 31 24 19 25 25 20 18 18 21 22
63 62 59 55 58 52 52 52 47 40 37 31 31 30 21 20 20 21 21 21 23 23
66 58 49 51 50 53 54 47 43 40 38 36 31 35 25 24 24 25 21 21 23 24
54 53 55 55 51 51 47 44 42 44 36 33 30 34 26 26 26 24 21 23 25 23
54 60 52 51 48 51 49 43 40 38 35 32 33 30 27 29 27 26 24 21 21 19
56 52 55 53 50 47 45 43 41 36 27 27 26 27 26 26 24 23 20 18 17 14
53 55 58 56 46 44 44 41 36 30 27 25 24 23 23 20 17 17 18 20 17 13
Wind_Direction_850mb
247 247 247 242 242 239 240 241 244 239 233 228 203 213 210 215 222 234 244 242 249 252
242 247 245 240 239 239 236 238 233 233 221 203 214 210 213 218 224 237 240 244 249 248
243 248 245 235 234 234 230 229 223 224 215 205 205 210 211 215 231 233 230 230 237 238
235 237 240 232 231 237 225 213 209 199 197 202 202 201 213 223 225 220 217 231 236 236
230 232 222 230 233 218 210 205 195 191 195 192 194 208 227 225 228 214 221 242 231 227
223 221 226 217 209 201 198 197 184 187 188 187 193 214 224 219 223 211 223 234 233 227
211 208 199 195 196 201 200 189 180 185 185 189 206 211 217 223 209 212 226 239 239 228
190 183 188 190 190 179 178 177 176 176 184 196 190 195 188 190 200 221 233 241 232 225
181 177 180 183 169 170 169 172 175 179 185 187 189 187 201 208 221 238 253 249 225 223
171 172 170 172 171 171 175 173 177 182 187 187 199 201 205 207 224 243 254 236 224 226
164 167 164 164 168 169 172 175 178 179 186 189 193 205 215 212 224 238 235 229 224 239
169 166 169 168 165 171 174 179 182 180 185 190 198 205 213 223 226 228 226 228 226 250
170 171 165 166 169 174 175 176 182 186 195 199 212 215 215 224 225 223 214 219 226 244
161 166 168 168 173 178 183 187 189 195 194 201 203 208 215 214 215 207 206 206 214 201